Time,TemperatureF,DewpointF,PressureIn,WindDirection,WindDirectionDegrees,WindSpeedMPH,WindSpeedGustMPH,Humidity,HourlyPrecipIn,Conditions,Clouds,dailyrainin,SoftwareType,DateUTC
2013-12-22 07:10:00,60.1,56.8,29.84,SSE,167,6.0,12.0,89,0.07,,---,0.07,VWS V15.00,2013-12-22 12:10:00,
2013-12-22 07:20:00,60.1,56.5,29.84,South,176,10.0,14.0,88,0.00,,---,0.07,VWS V15.00,2013-12-22 12:20:00,
2013-12-22 07:30:00,60.2,56.3,29.83,SSW,213,8.0,16.0,87,0.00,,---,0.07,VWS V15.00,2013-12-22 12:30:00,
2013-12-22 07:40:00,60.3,56.4,29.83,SSE,164,8.0,15.0,87,0.00,,---,0.07,VWS V15.00,2013-12-22 12:40:00,
2013-12-22 07:50:00,60.5,55.7,29.81,South,169,11.0,20.0,84,0.00,,---,0.07,VWS V15.00,2013-12-22 12:50:00,
2013-12-22 08:00:00,60.2,57.0,29.83,South,183,7.0,7.0,89,0.00,,---,0.07,VWS V14.01,2013-12-22 13:00:00,
2013-12-22 08:01:00,60.2,57.0,29.83,South,183,7.0,7.0,89,0.07,,---,0.07,VWS V14.01,2013-12-22 13:01:00,
2013-12-22 08:06:00,60.1,56.8,29.83,SSW,202,6.0,11.0,89,0.07,,---,0.07,VWS V14.01,2013-12-22 13:06:00,
2013-12-22 08:10:00,60.1,56.8,29.84,SSE,167,6.0,12.0,89,0.07,,---,0.07,VWS V14.01,2013-12-22 13:10:00,
2013-12-22 08:11:00,60.1,56.8,29.84,SSW,212,5.0,11.0,89,0.00,,---,0.07,VWS V14.01,2013-12-22 13:11:00,
2013-12-22 08:16:00,60.1,56.8,29.84,South,185,11.0,13.0,89,0.00,,---,0.07,VWS V14.01,2013-12-22 13:16:00,
2013-12-22 08:20:00,60.1,56.5,29.84,South,176,10.0,14.0,88,0.00,,---,0.07,VWS V14.01,2013-12-22 13:20:00,
2013-12-22 08:21:00,60.2,56.6,29.83,SW,236,5.0,11.0,88,0.00,,---,0.07,VWS V14.01,2013-12-22 13:21:00,
2013-12-22 08:26:00,60.1,56.5,29.83,SSW,205,5.0,14.0,88,0.00,,---,0.07,VWS V14.01,2013-12-22 13:26:00,
2013-12-22 08:30:00,60.2,56.3,29.83,SSW,213,8.0,16.0,87,0.00,,---,0.07,VWS V14.01,2013-12-22 13:30:00,
2013-12-22 08:31:00,60.3,56.4,29.83,SSE,165,6.0,15.0,87,0.00,,---,0.07,VWS V14.01,2013-12-22 13:31:00,
2013-12-22 08:36:00,60.3,56.4,29.83,SSW,212,6.0,15.0,87,0.00,,---,0.07,VWS V14.01,2013-12-22 13:36:00,
2013-12-22 08:40:00,60.3,56.4,29.83,SSE,164,8.0,15.0,87,0.00,,---,0.07,VWS V14.01,2013-12-22 13:40:00,
2013-12-22 08:41:00,60.3,56.1,29.83,South,179,14.0,20.0,86,0.00,,---,0.07,VWS V14.01,2013-12-22 13:41:00,
2013-12-22 08:46:00,60.5,56.0,29.81,South,171,6.0,20.0,85,0.00,,---,0.07,VWS V14.01,2013-12-22 13:46:00,
2013-12-22 08:50:00,60.5,55.7,29.81,South,169,11.0,20.0,84,0.00,,---,0.07,VWS V14.01,2013-12-22 13:50:00,
2013-12-22 08:51:00,60.6,55.8,29.81,South,173,12.0,18.0,84,0.00,,---,0.07,VWS V14.01,2013-12-22 13:51:00,
2013-12-22 08:56:00,60.7,55.5,29.80,SW,226,5.0,18.0,83,0.00,,---,0.07,VWS V14.01,2013-12-22 13:56:00,
2013-12-22 09:00:00,60.7,55.5,29.81,SSW,209,6.0,18.0,83,0.00,,---,0.07,VWS V14.01,2013-12-22 14:00:00,
2013-12-22 09:01:00,60.7,55.5,29.81,SSW,194,4.0,7.0,83,0.00,,---,0.07,VWS V14.01,2013-12-22 14:01:00,
2013-12-22 09:06:00,60.7,55.2,29.81,South,172,5.0,15.0,82,0.00,,---,0.07,VWS V14.01,2013-12-22 14:06:00,
2013-12-22 09:10:00,60.7,55.2,29.81,SSE,164,7.0,15.0,82,0.00,,---,0.07,VWS V14.01,2013-12-22 14:10:00,
2013-12-22 09:11:00,60.7,54.8,29.81,South,187,9.0,15.0,81,0.00,,---,0.07,VWS V14.01,2013-12-22 14:11:00,
2013-12-22 09:16:00,60.9,54.3,29.79,SSW,207,11.0,20.0,79,0.00,,---,0.07,VWS V14.01,2013-12-22 14:16:00,
2013-12-22 09:20:00,61.0,54.1,29.79,SSW,211,9.0,20.0,78,0.00,,---,0.07,VWS V14.01,2013-12-22 14:20:00,
2013-12-22 09:21:00,61.1,54.2,29.79,South,172,16.0,22.0,78,0.00,,---,0.07,VWS V14.01,2013-12-22 14:21:00,
2013-12-22 09:26:00,61.2,54.3,29.79,South,175,9.0,22.0,78,0.00,,---,0.07,VWS V14.01,2013-12-22 14:26:00,
2013-12-22 09:30:00,61.3,54.0,29.80,South,187,7.0,22.0,77,0.00,,---,0.07,VWS V14.01,2013-12-22 14:30:00,
2013-12-22 09:31:00,61.3,54.0,29.79,SSW,205,7.0,19.0,77,0.00,,---,0.07,VWS V14.01,2013-12-22 14:31:00,
2013-12-22 09:36:00,61.5,53.9,29.80,SSW,210,8.0,20.0,76,0.00,,---,0.07,VWS V14.01,2013-12-22 14:36:00,
2013-12-22 09:40:00,61.6,54.0,29.80,SW,222,8.0,20.0,76,0.00,,---,0.07,VWS V14.01,2013-12-22 14:40:00,
2013-12-22 09:41:00,61.7,54.1,29.80,South,182,13.0,23.0,76,0.00,,---,0.07,VWS V14.01,2013-12-22 14:41:00,
2013-12-22 09:46:00,61.7,54.1,29.79,SSW,204,16.0,24.0,76,0.00,,---,0.07,VWS V14.01,2013-12-22 14:46:00,
2013-12-22 09:50:00,61.7,54.1,29.77,South,190,14.0,24.0,76,0.00,,---,0.07,VWS V14.01,2013-12-22 14:50:00,
2013-12-22 09:51:00,61.7,54.1,29.77,SSW,203,14.0,19.0,76,0.00,,---,0.07,VWS V14.01,2013-12-22 14:51:00,
2013-12-22 09:56:00,61.7,54.1,29.77,South,191,17.0,22.0,76,0.00,,---,0.07,VWS V14.01,2013-12-22 14:56:00,
2013-12-22 10:00:00,61.7,53.7,29.78,SW,222,15.0,25.0,75,0.00,,---,0.07,VWS V14.01,2013-12-22 15:00:00,
2013-12-22 10:01:00,61.7,54.1,29.77,South,182,13.0,23.0,76,0.00,,---,0.07,VWS V14.01,2013-12-22 15:01:00,
2013-12-22 10:06:00,61.6,54.0,29.75,SW,219,14.0,24.0,76,0.00,,---,0.07,VWS V14.01,2013-12-22 15:06:00,
2013-12-22 10:10:00,61.6,54.0,29.73,SSE,159,27.0,28.0,76,0.00,,---,0.07,VWS V14.01,2013-12-22 15:10:00,
2013-12-22 10:11:00,61.6,53.6,29.72,SSE,160,14.0,27.0,75,0.00,,---,0.07,VWS V14.01,2013-12-22 15:11:00,
2013-12-22 10:16:00,61.7,53.3,29.71,SSW,192,13.0,33.0,74,0.00,,---,0.07,VWS V14.01,2013-12-22 15:16:00,
2013-12-22 10:20:00,62.0,53.3,29.70,South,179,20.0,34.0,73,0.00,,---,0.07,VWS V14.01,2013-12-22 15:20:00,
2013-12-22 10:21:00,62.2,53.5,29.71,South,179,20.0,29.0,73,0.00,,---,0.07,VWS V14.01,2013-12-22 15:21:00,
2013-12-22 10:26:00,62.4,53.3,29.72,SSW,210,16.0,30.0,72,0.00,,---,0.07,VWS V14.01,2013-12-22 15:26:00,
2013-12-22 10:30:00,62.6,53.5,29.74,SSE,155,10.0,30.0,72,0.00,,---,0.07,VWS V14.01,2013-12-22 15:30:00,
2013-12-22 10:31:00,62.6,53.5,29.74,SSE,167,9.0,21.0,72,0.00,,---,0.07,VWS V14.01,2013-12-22 15:31:00,
2013-12-22 10:36:00,62.7,53.5,29.73,SW,230,27.0,27.0,72,0.00,,---,0.07,VWS V14.01,2013-12-22 15:36:00,
2013-12-22 10:40:00,63.0,53.5,29.74,SSW,209,7.0,27.0,71,0.00,,---,0.07,VWS V14.01,2013-12-22 15:40:00,
2013-12-22 10:41:00,63.2,53.3,29.74,South,190,8.0,28.0,70,0.00,,---,0.07,VWS V14.01,2013-12-22 15:41:00,
2013-12-22 10:46:00,63.6,52.9,29.75,SSE,157,13.0,28.0,68,0.00,,---,0.07,VWS V14.01,2013-12-22 15:46:00,
2013-12-22 10:50:00,63.9,52.7,29.73,SSW,206,20.0,28.0,67,0.00,,---,0.07,VWS V14.01,2013-12-22 15:50:00,
2013-12-22 10:51:00,64.1,52.9,29.75,SSW,206,15.0,21.0,67,0.00,,---,0.07,VWS V14.01,2013-12-22 15:51:00,
2013-12-22 10:56:00,64.0,53.2,29.76,SSW,209,10.0,21.0,68,0.00,,---,0.07,VWS V14.01,2013-12-22 15:56:00,
2013-12-22 11:00:00,64.0,53.2,29.77,SW,227,14.0,21.0,68,0.00,,---,0.07,VWS V14.01,2013-12-22 16:00:00,
2013-12-22 11:01:00,63.9,53.5,29.77,SW,215,6.0,19.0,69,0.00,,---,0.07,VWS V14.01,2013-12-22 16:01:00,
2013-12-22 11:06:00,63.7,53.3,29.76,SSW,196,11.0,24.0,69,0.00,,---,0.07,VWS V14.01,2013-12-22 16:06:00,
2013-12-22 11:10:00,63.5,53.5,29.76,South,179,7.0,24.0,70,0.00,,---,0.07,VWS V14.01,2013-12-22 16:10:00,
2013-12-22 11:11:00,63.4,53.5,29.74,SW,214,14.0,21.0,70,0.00,,---,0.07,VWS V14.01,2013-12-22 16:11:00,
2013-12-22 11:16:00,63.2,53.3,29.75,SW,215,10.0,25.0,70,0.00,,---,0.07,VWS V14.01,2013-12-22 16:16:00,
2013-12-22 11:20:00,63.2,53.7,29.75,SW,233,4.0,25.0,71,0.00,,---,0.07,VWS V14.01,2013-12-22 16:20:00,
2013-12-22 11:21:00,63.2,53.7,29.75,SW,222,12.0,16.0,71,0.00,,---,0.07,VWS V14.01,2013-12-22 16:21:00,
2013-12-22 11:26:00,63.1,53.2,29.75,SSW,195,10.0,21.0,70,0.00,,---,0.07,VWS V14.01,2013-12-22 16:26:00,
2013-12-22 11:30:00,63.0,53.5,29.76,WSW,240,7.0,21.0,71,0.00,,---,0.07,VWS V14.01,2013-12-22 16:30:00,
2013-12-22 11:31:00,63.0,53.5,29.77,SSW,200,12.0,19.0,71,0.00,,---,0.07,VWS V14.01,2013-12-22 16:31:00,
2013-12-22 11:36:00,62.9,53.8,29.77,SSE,167,16.0,19.0,72,0.00,,---,0.07,VWS V14.01,2013-12-22 16:36:00,
2013-12-22 11:40:00,62.8,53.3,29.76,SW,215,7.0,20.0,71,0.00,,---,0.07,VWS V14.01,2013-12-22 16:40:00,
2013-12-22 11:41:00,62.7,53.5,29.76,SSW,206,14.0,15.0,72,0.00,,---,0.07,VWS V14.01,2013-12-22 16:41:00,
2013-12-22 11:46:00,62.6,53.8,29.76,South,179,12.0,20.0,73,0.00,,---,0.07,VWS V14.01,2013-12-22 16:46:00,
2013-12-22 11:50:00,62.5,53.7,29.76,SSW,211,12.0,20.0,73,0.00,,---,0.07,VWS V14.01,2013-12-22 16:50:00,
2013-12-22 11:51:00,62.5,53.7,29.76,South,190,12.0,19.0,73,0.00,,---,0.07,VWS V14.01,2013-12-22 16:51:00,
2013-12-22 11:56:00,62.4,53.6,29.76,SSW,206,14.0,19.0,73,0.00,,---,0.07,VWS V14.01,2013-12-22 16:56:00,
2013-12-22 12:00:00,62.4,53.6,29.76,West,265,11.0,19.0,73,0.00,,---,0.07,VWS V14.01,2013-12-22 17:00:00,
2013-12-22 12:01:00,62.4,53.6,29.76,SW,214,12.0,23.0,73,0.00,,---,0.07,VWS V14.01,2013-12-22 17:01:00,
2013-12-22 12:06:00,62.4,53.6,29.76,SSW,196,17.0,23.0,73,0.00,,---,0.07,VWS V14.01,2013-12-22 17:06:00,
2013-12-22 12:10:00,62.4,53.6,29.75,SW,214,11.0,23.0,73,0.00,,---,0.07,VWS V14.01,2013-12-22 17:10:00,
2013-12-22 12:11:00,62.4,54.0,29.76,West,269,8.0,17.0,74,0.00,,---,0.07,VWS V14.01,2013-12-22 17:11:00,
2013-12-22 12:16:00,62.2,53.8,29.76,SSW,196,15.0,17.0,74,0.00,,---,0.07,VWS V14.01,2013-12-22 17:16:00,
2013-12-22 12:20:00,62.2,53.8,29.76,SW,221,15.0,21.0,74,0.00,,---,0.07,VWS V14.01,2013-12-22 17:20:00,
2013-12-22 12:21:00,62.3,53.9,29.76,SW,219,7.0,19.0,74,0.00,,---,0.07,VWS V14.01,2013-12-22 17:21:00,
2013-12-22 12:26:00,62.2,53.8,29.76,WSW,237,8.0,19.0,74,0.00,,---,0.07,VWS V14.01,2013-12-22 17:26:00,
2013-12-22 12:30:00,62.2,53.8,29.75,SSW,200,10.0,26.0,74,0.00,,---,0.07,VWS V14.01,2013-12-22 17:30:00,
2013-12-22 12:31:00,62.2,53.8,29.76,SSW,202,6.0,17.0,74,0.00,,---,0.07,VWS V14.01,2013-12-22 17:31:00,
2013-12-22 12:36:00,62.2,53.8,29.76,SW,214,6.0,24.0,74,0.00,,---,0.07,VWS V14.01,2013-12-22 17:36:00,
2013-12-22 12:40:00,62.1,53.7,29.76,SW,226,14.0,24.0,74,0.00,,---,0.07,VWS V14.01,2013-12-22 17:40:00,
2013-12-22 12:41:00,62.2,53.8,29.76,WSW,241,11.0,20.0,74,0.00,,---,0.07,VWS V14.01,2013-12-22 17:41:00,
2013-12-22 12:46:00,62.2,53.8,29.76,SSW,205,13.0,23.0,74,0.00,,---,0.07,VWS V14.01,2013-12-22 17:46:00,
2013-12-22 12:50:00,62.3,53.9,29.76,SW,223,7.0,23.0,74,0.00,,---,0.07,VWS V14.01,2013-12-22 17:50:00,
2013-12-22 12:51:00,62.3,53.9,29.76,SSE,167,12.0,21.0,74,0.00,,---,0.07,VWS V14.01,2013-12-22 17:51:00,
2013-12-22 12:56:00,62.2,53.8,29.77,SSW,211,11.0,21.0,74,0.00,,---,0.07,VWS V14.01,2013-12-22 17:56:00,
2013-12-22 13:00:00,62.3,53.9,29.77,SW,222,13.0,21.0,74,0.00,,---,0.07,VWS V14.01,2013-12-22 18:00:00,
2013-12-22 13:01:00,62.3,53.5,29.76,SSW,199,23.0,24.0,73,0.00,,---,0.07,VWS V14.01,2013-12-22 18:01:00,
2013-12-22 13:06:00,62.3,53.9,29.77,SSW,210,14.0,24.0,74,0.00,,---,0.07,VWS V14.01,2013-12-22 18:06:00,
2013-12-22 13:10:00,62.3,53.9,29.76,SSW,210,10.0,24.0,74,0.00,,---,0.07,VWS V14.01,2013-12-22 18:10:00,
2013-12-22 13:11:00,62.3,53.9,29.77,SSW,209,7.0,17.0,74,0.00,,---,0.07,VWS V14.01,2013-12-22 18:11:00,
2013-12-22 13:17:00,62.3,53.9,29.77,SW,219,13.0,25.0,74,0.00,,---,0.07,VWS V14.01,2013-12-22 18:17:00,
2013-12-22 13:20:00,62.3,53.5,29.76,SW,218,8.0,25.0,73,0.00,,---,0.07,VWS V14.01,2013-12-22 18:20:00,
2013-12-22 13:22:00,62.3,53.9,29.76,SW,232,16.0,16.0,74,0.00,,---,0.07,VWS V14.01,2013-12-22 18:22:00,
2013-12-22 13:27:00,62.3,53.9,29.77,West,275,8.0,18.0,74,0.00,,---,0.07,VWS V14.01,2013-12-22 18:27:00,
2013-12-22 13:30:00,62.3,53.9,29.77,WSW,240,9.0,18.0,74,0.00,,---,0.07,VWS V14.01,2013-12-22 18:30:00,
2013-12-22 13:32:00,62.2,53.8,29.77,SW,215,8.0,21.0,74,0.00,,---,0.07,VWS V14.01,2013-12-22 18:32:00,
2013-12-22 13:37:00,62.4,54.0,29.77,SW,229,18.0,21.0,74,0.00,,---,0.07,VWS V14.01,2013-12-22 18:37:00,
2013-12-22 13:40:00,62.4,53.6,29.77,SSW,192,10.0,21.0,73,0.00,,---,0.07,VWS V14.01,2013-12-22 18:40:00,
2013-12-22 13:42:00,62.4,53.6,29.78,WSW,240,11.0,18.0,73,0.00,,---,0.07,VWS V14.01,2013-12-22 18:42:00,
2013-12-22 13:47:00,62.4,53.6,29.78,SSW,196,10.0,18.0,73,0.00,,---,0.07,VWS V14.01,2013-12-22 18:47:00,
2013-12-22 13:50:00,62.5,53.7,29.78,SSW,192,10.0,25.0,73,0.00,,---,0.07,VWS V14.01,2013-12-22 18:50:00,
2013-12-22 13:52:00,62.5,53.7,29.78,SSW,211,11.0,19.0,73,0.00,,---,0.07,VWS V14.01,2013-12-22 18:52:00,
2013-12-22 13:57:00,62.4,53.6,29.78,SSW,193,15.0,20.0,73,0.00,,---,0.07,VWS V14.01,2013-12-22 18:57:00,
2013-12-22 14:00:00,62.4,53.6,29.78,SW,222,7.0,20.0,73,0.00,,---,0.07,VWS V14.01,2013-12-22 19:00:00,
2013-12-22 14:02:00,62.5,53.7,29.78,South,191,12.0,20.0,73,0.00,,---,0.07,VWS V14.01,2013-12-22 19:02:00,
2013-12-22 14:07:00,62.5,53.7,29.78,South,190,8.0,21.0,73,0.00,,---,0.07,VWS V14.01,2013-12-22 19:07:00,
2013-12-22 14:10:00,62.5,53.7,29.78,SW,221,5.0,21.0,73,0.00,,---,0.07,VWS V14.01,2013-12-22 19:10:00,
2013-12-22 14:12:00,62.5,53.7,29.78,SW,221,8.0,16.0,73,0.00,,---,0.07,VWS V14.01,2013-12-22 19:12:00,
2013-12-22 14:17:00,62.5,53.7,29.78,SSE,153,8.0,16.0,73,0.00,,---,0.07,VWS V14.01,2013-12-22 19:17:00,
2013-12-22 14:20:00,62.5,53.7,29.78,WSW,238,16.0,16.0,73,0.00,,---,0.07,VWS V14.01,2013-12-22 19:20:00,
2013-12-22 14:22:00,62.5,53.4,29.79,SW,225,8.0,18.0,72,0.00,,---,0.07,VWS V14.01,2013-12-22 19:22:00,
2013-12-22 14:27:00,62.6,53.5,29.78,SW,234,9.0,18.0,72,0.00,,---,0.07,VWS V14.01,2013-12-22 19:27:00,
2013-12-22 14:30:00,62.5,53.7,29.78,WSW,238,9.0,18.0,73,0.00,,---,0.07,VWS V14.01,2013-12-22 19:30:00,
2013-12-22 14:32:00,62.5,53.4,29.78,SW,218,7.0,14.0,72,0.00,,---,0.07,VWS V14.01,2013-12-22 19:32:00,
2013-12-22 14:37:00,62.5,53.7,29.78,SW,219,10.0,15.0,73,0.00,,---,0.07,VWS V14.01,2013-12-22 19:37:00,
2013-12-22 14:40:00,62.4,53.6,29.79,SW,214,10.0,15.0,73,0.00,,---,0.07,VWS V14.01,2013-12-22 19:40:00,
2013-12-22 14:42:00,62.4,53.6,29.78,SSW,209,6.0,13.0,73,0.00,,---,0.07,VWS V14.01,2013-12-22 19:42:00,
2013-12-22 14:47:00,62.4,53.6,29.78,SSW,198,4.0,13.0,73,0.00,,---,0.07,VWS V14.01,2013-12-22 19:47:00,
2013-12-22 14:50:00,62.4,53.6,29.78,SW,227,10.0,13.0,73,0.00,,---,0.07,VWS V14.01,2013-12-22 19:50:00,
2013-12-22 14:52:00,62.3,53.5,29.78,South,190,5.0,14.0,73,0.00,,---,0.07,VWS V14.01,2013-12-22 19:52:00,
2013-12-22 14:57:00,62.3,53.5,29.78,SSW,193,6.0,16.0,73,0.00,,---,0.07,VWS V14.01,2013-12-22 19:57:00,
2013-12-22 15:00:00,62.3,53.5,29.78,West,263,5.0,16.0,73,0.00,,---,0.07,VWS V14.01,2013-12-22 20:00:00,
2013-12-22 15:02:00,62.3,53.5,29.78,South,180,6.0,8.0,73,0.00,,---,0.07,VWS V14.01,2013-12-22 20:02:00,
2013-12-22 15:07:00,62.2,53.5,29.78,SW,222,11.0,12.0,73,0.00,,---,0.07,VWS V14.01,2013-12-22 20:07:00,
2013-12-22 15:10:00,62.1,53.3,29.79,WSW,245,9.0,12.0,73,0.00,,---,0.07,VWS V14.01,2013-12-22 20:10:00,
2013-12-22 15:12:00,62.1,53.3,29.78,West,260,6.0,15.0,73,0.00,,---,0.07,VWS V14.01,2013-12-22 20:12:00,
2013-12-22 15:17:00,62.1,53.3,29.79,SW,226,4.0,15.0,73,0.00,,---,0.07,VWS V14.01,2013-12-22 20:17:00,
2013-12-22 15:20:00,62.1,53.7,29.79,SW,225,6.0,15.0,74,0.00,,---,0.07,VWS V14.01,2013-12-22 20:20:00,
2013-12-22 15:22:00,62.0,53.6,29.79,SW,226,7.0,9.0,74,0.00,,---,0.07,VWS V14.01,2013-12-22 20:22:00,
2013-12-22 15:27:00,61.9,53.5,29.78,SSW,210,3.0,13.0,74,0.00,,---,0.07,VWS V14.01,2013-12-22 20:27:00,
2013-12-22 15:30:00,61.9,53.5,29.78,WSW,241,10.0,13.0,74,0.00,,---,0.07,VWS V14.01,2013-12-22 20:30:00,
2013-12-22 15:32:00,61.9,53.5,29.79,SSW,209,7.0,14.0,74,0.00,,---,0.07,VWS V14.01,2013-12-22 20:32:00,
2013-12-22 15:37:00,61.8,53.4,29.79,SW,215,5.0,14.0,74,0.00,,---,0.07,VWS V14.01,2013-12-22 20:37:00,
2013-12-22 15:40:00,61.8,53.4,29.79,SW,223,6.0,14.0,74,0.00,,---,0.07,VWS V14.01,2013-12-22 20:40:00,
2013-12-22 15:42:00,61.7,53.3,29.80,SW,233,8.0,12.0,74,0.00,,---,0.07,VWS V14.01,2013-12-22 20:42:00,
2013-12-22 15:47:00,61.7,53.3,29.80,NNE,26,3.0,14.0,74,0.00,,---,0.07,VWS V14.01,2013-12-22 20:47:00,
2013-12-22 15:50:00,61.7,53.7,29.80,SW,222,5.0,14.0,75,0.00,,---,0.07,VWS V14.01,2013-12-22 20:50:00,
2013-12-22 15:52:00,61.6,53.6,29.80,South,182,2.0,11.0,75,0.00,,---,0.07,VWS V14.01,2013-12-22 20:52:00,
2013-12-22 15:57:00,61.5,53.5,29.80,SE,130,2.0,11.0,75,0.00,,---,0.07,VWS V14.01,2013-12-22 20:57:00,
2013-12-22 16:00:00,61.5,53.5,29.80,SW,225,6.0,14.0,75,0.00,,---,0.07,VWS V14.01,2013-12-22 21:00:00,
2013-12-22 16:02:00,61.5,53.5,29.80,SW,218,5.0,10.0,75,0.00,,---,0.07,VWS V14.01,2013-12-22 21:02:00,
2013-12-22 16:07:00,61.4,53.4,29.80,SW,234,7.0,14.0,75,0.00,,---,0.07,VWS V14.01,2013-12-22 21:07:00,
2013-12-22 16:10:00,61.4,53.4,29.81,SW,234,6.0,14.0,75,0.00,,---,0.07,VWS V14.01,2013-12-22 21:10:00,
2013-12-22 16:12:00,61.4,53.4,29.80,SSW,203,5.0,11.0,75,0.00,,---,0.07,VWS V14.01,2013-12-22 21:12:00,
2013-12-22 16:17:00,61.4,53.4,29.81,SSW,213,4.0,13.0,75,0.00,,---,0.07,VWS V14.01,2013-12-22 21:17:00,
2013-12-22 16:20:00,61.3,53.3,29.81,SSW,206,7.0,13.0,75,0.00,,---,0.07,VWS V14.01,2013-12-22 21:20:00,
2013-12-22 16:22:00,61.3,53.3,29.81,WSW,248,3.0,11.0,75,0.00,,---,0.07,VWS V14.01,2013-12-22 21:22:00,
2013-12-22 16:27:00,61.3,53.3,29.81,SSW,202,10.0,12.0,75,0.00,,---,0.07,VWS V14.01,2013-12-22 21:27:00,
2013-12-22 16:28:00,61.3,53.3,29.82,SW,222,9.0,12.0,75,0.00,,---,0.07,VWS V14.01,2013-12-22 21:28:00,
2013-12-22 16:30:00,61.3,53.3,29.82,South,179,8.0,15.0,75,0.00,,---,0.07,VWS V14.01,2013-12-22 21:30:00,
2013-12-22 16:33:00,61.3,53.3,29.82,SSW,202,7.0,12.0,75,0.00,,---,0.07,VWS V14.01,2013-12-22 21:33:00,
2013-12-22 16:38:00,61.2,53.2,29.82,SSW,195,8.0,12.0,75,0.00,,---,0.07,VWS V14.01,2013-12-22 21:38:00,
2013-12-22 16:40:00,61.2,53.2,29.82,SW,218,10.0,12.0,75,0.00,,---,0.07,VWS V14.01,2013-12-22 21:40:00,
2013-12-22 16:43:00,61.2,53.2,29.81,SW,226,6.0,13.0,75,0.00,,---,0.07,VWS V14.01,2013-12-22 21:43:00,
2013-12-22 16:48:00,61.1,53.5,29.82,South,186,6.0,13.0,76,0.00,,---,0.07,VWS V14.01,2013-12-22 21:48:00,
2013-12-22 16:50:00,61.0,53.4,29.82,SSW,192,6.0,13.0,76,0.00,,---,0.07,VWS V14.01,2013-12-22 21:50:00,
2013-12-22 16:53:00,60.9,53.3,29.82,South,186,7.0,13.0,76,0.00,,---,0.07,VWS V14.01,2013-12-22 21:53:00,
2013-12-22 16:58:00,60.9,53.3,29.82,SSW,195,4.0,13.0,76,0.00,,---,0.07,VWS V14.01,2013-12-22 21:58:00,
2013-12-22 17:00:00,60.8,53.2,29.82,SW,219,5.0,13.0,76,0.00,,---,0.07,VWS V14.01,2013-12-22 22:00:00,
2013-12-22 17:03:00,60.8,53.2,29.81,SSW,209,10.0,11.0,76,0.00,,---,0.07,VWS V14.01,2013-12-22 22:03:00,
2013-12-22 17:08:00,60.7,53.1,29.82,SSW,192,4.0,11.0,76,0.00,,---,0.07,VWS V14.01,2013-12-22 22:08:00,
2013-12-22 17:10:00,60.7,53.1,29.82,South,182,6.0,13.0,76,0.00,,---,0.07,VWS V14.01,2013-12-22 22:10:00,
2013-12-22 17:13:00,60.7,53.1,29.82,SW,236,5.0,13.0,76,0.00,,---,0.07,VWS V14.01,2013-12-22 22:13:00,
2013-12-22 17:18:00,60.7,53.5,29.82,SSW,203,4.0,13.0,77,0.00,,---,0.07,VWS V14.01,2013-12-22 22:18:00,
2013-12-22 17:20:00,60.7,53.1,29.82,SSW,205,7.0,13.0,76,0.00,,---,0.07,VWS V14.01,2013-12-22 22:20:00,
2013-12-22 17:23:00,60.7,53.5,29.82,SSW,202,3.0,10.0,77,0.00,,---,0.07,VWS V14.01,2013-12-22 22:23:00,
2013-12-22 17:28:00,60.5,53.3,29.82,SSW,209,2.0,10.0,77,0.00,,---,0.07,VWS V14.01,2013-12-22 22:28:00,
2013-12-22 17:30:00,60.5,53.3,29.82,SW,230,7.0,10.0,77,0.00,,---,0.07,VWS V14.01,2013-12-22 22:30:00,
2013-12-22 17:33:00,60.5,53.3,29.82,SW,222,5.0,8.0,77,0.00,,---,0.07,VWS V14.01,2013-12-22 22:33:00,
2013-12-22 17:38:00,60.5,53.3,29.83,SW,215,5.0,8.0,77,0.00,,---,0.07,VWS V14.01,2013-12-22 22:38:00,
2013-12-22 17:40:00,60.5,53.3,29.83,SW,229,7.0,8.0,77,0.00,,---,0.07,VWS V14.01,2013-12-22 22:40:00,
2013-12-22 17:43:00,60.5,53.3,29.84,SW,230,5.0,9.0,77,0.00,,---,0.07,VWS V14.01,2013-12-22 22:43:00,
2013-12-22 17:48:00,60.5,53.3,29.84,South,190,4.0,11.0,77,0.00,,---,0.07,VWS V14.01,2013-12-22 22:48:00,
2013-12-22 17:50:00,60.5,53.3,29.85,WNW,289,6.0,11.0,77,0.00,,---,0.07,VWS V14.01,2013-12-22 22:50:00,
2013-12-22 17:53:00,60.6,53.4,29.84,SSW,209,5.0,11.0,77,0.00,,---,0.07,VWS V14.01,2013-12-22 22:53:00,
2013-12-22 17:58:00,60.5,53.3,29.84,SSW,205,6.0,11.0,77,0.00,,---,0.07,VWS V14.01,2013-12-22 22:58:00,
2013-12-22 18:00:00,60.5,53.3,29.84,SW,222,7.0,11.0,77,0.00,,---,0.07,VWS V14.01,2013-12-22 23:00:00,
2013-12-22 18:03:00,60.4,53.2,29.84,WSW,252,5.0,9.0,77,0.00,,---,0.07,VWS V14.01,2013-12-22 23:03:00,
2013-12-22 18:08:00,60.4,53.2,29.84,South,183,9.0,10.0,77,0.00,,---,0.07,VWS V14.01,2013-12-22 23:08:00,
2013-12-22 18:10:00,60.4,53.2,29.84,SSW,199,7.0,11.0,77,0.00,,---,0.07,VWS V14.01,2013-12-22 23:10:00,
2013-12-22 18:13:00,60.4,53.2,29.84,WSW,252,7.0,9.0,77,0.00,,---,0.07,VWS V14.01,2013-12-22 23:13:00,
2013-12-22 18:18:00,60.4,53.2,29.84,SW,236,6.0,9.0,77,0.00,,---,0.07,VWS V14.01,2013-12-22 23:18:00,
2013-12-22 18:20:00,60.4,53.2,29.84,SSW,196,3.0,9.0,77,0.00,,---,0.07,VWS V14.01,2013-12-22 23:20:00,
2013-12-22 18:23:00,60.3,53.4,29.84,SSW,211,4.0,10.0,78,0.00,,---,0.07,VWS V14.01,2013-12-22 23:23:00,
2013-12-22 18:28:00,60.2,53.3,29.84,South,173,7.0,10.0,78,0.00,,---,0.07,VWS V14.01,2013-12-22 23:28:00,
2013-12-22 18:30:00,60.2,53.3,29.84,WSW,242,5.0,10.0,78,0.00,,---,0.07,VWS V14.01,2013-12-22 23:30:00,
2013-12-22 18:33:00,60.2,53.3,29.85,SSW,199,6.0,8.0,78,0.00,,---,0.07,VWS V14.01,2013-12-22 23:33:00,
2013-12-22 18:38:00,60.2,53.3,29.85,SSW,193,8.0,11.0,78,0.00,,---,0.07,VWS V14.01,2013-12-22 23:38:00,
2013-12-22 18:40:00,60.2,53.3,29.85,South,188,4.0,11.0,78,0.00,,---,0.07,VWS V14.01,2013-12-22 23:40:00,
2013-12-22 18:43:00,60.1,53.2,29.85,WSW,245,2.0,9.0,78,0.00,,---,0.07,VWS V14.01,2013-12-22 23:43:00,
2013-12-22 18:48:00,60.0,53.1,29.85,SW,215,4.0,9.0,78,0.00,,---,0.07,VWS V14.01,2013-12-22 23:48:00,
2013-12-22 18:50:00,59.9,53.0,29.85,South,190,3.0,9.0,78,0.00,,---,0.07,VWS V14.01,2013-12-22 23:50:00,
2013-12-22 18:53:00,60.0,53.1,29.86,SSW,211,5.0,11.0,78,0.00,,---,0.07,VWS V14.01,2013-12-22 23:53:00,
2013-12-22 18:58:00,60.0,53.1,29.86,WSW,246,4.0,11.0,78,0.00,,---,0.07,VWS V14.01,2013-12-22 23:58:00,
2013-12-22 19:00:00,60.0,53.1,29.86,WSW,244,1.0,11.0,78,0.00,,---,0.07,VWS V14.01,2013-12-23 00:00:00,
2013-12-22 19:03:00,60.0,53.1,29.86,SW,236,11.0,11.0,78,0.00,,---,0.07,VWS V14.01,2013-12-23 00:03:00,
2013-12-22 19:08:00,60.1,53.2,29.88,South,170,1.0,12.0,78,0.00,,---,0.07,VWS V14.01,2013-12-23 00:08:00,
2013-12-22 19:10:00,60.1,53.2,29.87,South,191,6.0,12.0,78,0.00,,---,0.07,VWS V14.01,2013-12-23 00:10:00,
2013-12-22 19:13:00,60.1,53.2,29.87,SSW,200,7.0,11.0,78,0.00,,---,0.07,VWS V14.01,2013-12-23 00:13:00,
2013-12-22 19:18:00,60.1,53.2,29.87,SW,226,1.0,11.0,78,0.00,,---,0.07,VWS V14.01,2013-12-23 00:18:00,
2013-12-22 19:20:00,60.1,53.2,29.87,South,185,3.0,11.0,78,0.00,,---,0.07,VWS V14.01,2013-12-23 00:20:00,
2013-12-22 19:23:00,60.0,53.1,29.86,SW,221,6.0,8.0,78,0.00,,---,0.07,VWS V14.01,2013-12-23 00:23:00,
2013-12-22 19:28:00,59.9,53.0,29.86,SSW,202,5.0,8.0,78,0.00,,---,0.07,VWS V14.01,2013-12-23 00:28:00,
2013-12-22 19:30:00,59.9,53.0,29.87,SW,221,6.0,8.0,78,0.00,,---,0.07,VWS V14.01,2013-12-23 00:30:00,
2013-12-22 19:33:00,60.0,53.1,29.87,SSW,212,6.0,10.0,78,0.00,,---,0.07,VWS V14.01,2013-12-23 00:33:00,
2013-12-22 19:38:00,59.9,53.0,29.87,WSW,253,7.0,11.0,78,0.00,,---,0.07,VWS V14.01,2013-12-23 00:38:00,
2013-12-22 19:40:00,59.9,53.4,29.87,WSW,253,3.0,11.0,79,0.00,,---,0.07,VWS V14.01,2013-12-23 00:40:00,
2013-12-22 19:43:00,59.8,53.3,29.87,SSW,211,6.0,7.0,79,0.00,,---,0.07,VWS V14.01,2013-12-23 00:43:00,
2013-12-22 19:48:00,59.7,53.2,29.87,SW,232,3.0,7.0,79,0.00,,---,0.07,VWS V14.01,2013-12-23 00:48:00,
2013-12-22 19:50:00,59.7,53.2,29.87,WSW,245,2.0,7.0,79,0.00,,---,0.07,VWS V14.01,2013-12-23 00:50:00,
2013-12-22 19:53:00,59.7,53.2,29.87,South,178,4.0,5.0,79,0.00,,---,0.07,VWS V14.01,2013-12-23 00:53:00,
2013-12-22 19:58:00,59.6,53.1,29.87,WSW,244,2.0,5.0,79,0.00,,---,0.07,VWS V14.01,2013-12-23 00:58:00,
2013-12-22 20:00:00,59.6,53.1,29.87,SW,227,2.0,5.0,79,0.00,,---,0.07,VWS V14.01,2013-12-23 01:00:00,
2013-12-22 20:03:00,59.5,53.0,29.87,SSW,210,1.0,5.0,79,0.00,,---,0.07,VWS V14.01,2013-12-23 01:03:00,
2013-12-22 20:08:00,59.4,53.2,29.87,SW,221,4.0,5.0,80,0.00,,---,0.07,VWS V14.01,2013-12-23 01:08:00,
2013-12-22 20:10:00,59.3,53.1,29.86,South,180,5.0,7.0,80,0.00,,---,0.07,VWS V14.01,2013-12-23 01:10:00,
2013-12-22 20:13:00,59.4,53.2,29.86,SSW,207,2.0,6.0,80,0.00,,---,0.07,VWS V14.01,2013-12-23 01:13:00,
2013-12-22 20:18:00,59.3,53.1,29.86,SW,222,4.0,6.0,80,0.00,,---,0.07,VWS V14.01,2013-12-23 01:18:00,
2013-12-22 20:20:00,59.3,53.1,29.86,South,191,2.0,6.0,80,0.00,,---,0.07,VWS V14.01,2013-12-23 01:20:00,
2013-12-22 20:23:00,59.2,53.0,29.87,SSW,205,2.0,4.0,80,0.00,,---,0.07,VWS V14.01,2013-12-23 01:23:00,
2013-12-22 20:28:00,59.2,53.0,29.86,SSE,168,2.0,6.0,80,0.00,,---,0.07,VWS V14.01,2013-12-23 01:28:00,
2013-12-22 20:30:00,59.2,53.0,29.86,South,185,4.0,6.0,80,0.00,,---,0.07,VWS V14.01,2013-12-23 01:30:00,
2013-12-22 20:33:00,59.1,52.9,29.87,SSW,212,4.0,6.0,80,0.00,,---,0.07,VWS V14.01,2013-12-23 01:33:00,
2013-12-22 20:38:00,59.2,53.0,29.87,SW,234,4.0,8.0,80,0.00,,---,0.07,VWS V14.01,2013-12-23 01:38:00,
2013-12-22 20:40:00,59.2,53.0,29.87,SSW,199,5.0,8.0,80,0.00,,---,0.07,VWS V14.01,2013-12-23 01:40:00,
2013-12-22 20:43:00,59.2,53.0,29.88,South,190,0.0,5.0,80,0.00,,---,0.07,VWS V14.01,2013-12-23 01:43:00,
2013-12-22 20:48:00,59.2,53.0,29.88,SSW,209,4.0,6.0,80,0.00,,---,0.07,VWS V14.01,2013-12-23 01:48:00,
2013-12-22 20:50:00,59.2,53.0,29.88,West,260,5.0,6.0,80,0.00,,---,0.07,VWS V14.01,2013-12-23 01:50:00,
2013-12-22 20:53:00,59.2,53.0,29.88,SW,228,2.0,7.0,80,0.00,,---,0.07,VWS V14.01,2013-12-23 01:53:00,
2013-12-22 20:58:00,59.2,53.0,29.88,SW,227,4.0,8.0,80,0.00,,---,0.07,VWS V14.01,2013-12-23 01:58:00,
2013-12-22 21:00:00,59.2,53.0,29.88,South,182,5.0,8.0,80,0.00,,---,0.07,VWS V14.01,2013-12-23 02:00:00,
2013-12-22 21:03:00,59.3,52.8,29.88,South,187,4.0,10.0,79,0.00,,---,0.07,VWS V14.01,2013-12-23 02:03:00,
2013-12-22 21:08:00,59.3,52.8,29.88,WSW,245,1.0,10.0,79,0.00,,---,0.07,VWS V14.01,2013-12-23 02:08:00,
2013-12-22 21:10:00,59.3,52.8,29.88,SW,214,5.0,10.0,79,0.00,,---,0.07,VWS V14.01,2013-12-23 02:10:00,
2013-12-22 21:13:00,59.3,52.8,29.88,SSW,195,2.0,10.0,79,0.00,,---,0.07,VWS V14.01,2013-12-23 02:13:00,
2013-12-22 21:18:00,59.3,52.8,29.89,SSW,209,6.0,10.0,79,0.00,,---,0.07,VWS V14.01,2013-12-23 02:18:00,
2013-12-22 21:20:00,59.3,52.8,29.89,SSW,205,4.0,10.0,79,0.00,,---,0.07,VWS V14.01,2013-12-23 02:20:00,
2013-12-22 21:23:00,59.3,52.8,29.88,SW,225,6.0,6.0,79,0.00,,---,0.07,VWS V14.01,2013-12-23 02:23:00,
2013-12-22 21:28:00,59.3,52.8,29.89,SSW,200,1.0,9.0,79,0.00,,---,0.07,VWS V14.01,2013-12-23 02:28:00,
2013-12-22 21:30:00,59.3,52.8,29.89,SW,231,3.0,9.0,79,0.00,,---,0.07,VWS V14.01,2013-12-23 02:30:00,
2013-12-22 21:33:00,59.3,52.8,29.89,WSW,256,3.0,8.0,79,0.00,,---,0.07,VWS V14.01,2013-12-23 02:33:00,
2013-12-22 21:38:00,59.2,52.7,29.88,SSW,213,3.0,8.0,79,0.00,,---,0.07,VWS V14.01,2013-12-23 02:38:00,
2013-12-22 21:40:00,59.1,52.6,29.88,SSE,150,7.0,8.0,79,0.00,,---,0.07,VWS V14.01,2013-12-23 02:40:00,
2013-12-22 21:43:00,59.1,52.6,29.88,SW,218,2.0,7.0,79,0.00,,---,0.07,VWS V14.01,2013-12-23 02:43:00,
2013-12-22 21:48:00,59.1,52.9,29.88,SSW,210,2.0,8.0,80,0.00,,---,0.07,VWS V14.01,2013-12-23 02:48:00,
2013-12-22 21:50:00,59.1,52.9,29.88,SSW,205,2.0,8.0,80,0.00,,---,0.07,VWS V14.01,2013-12-23 02:50:00,
2013-12-22 21:53:00,59.0,52.8,29.89,SSW,207,1.0,6.0,80,0.00,,---,0.07,VWS V14.01,2013-12-23 02:53:00,
2013-12-22 21:58:00,59.0,52.8,29.89,WSW,249,1.0,7.0,80,0.00,,---,0.07,VWS V14.01,2013-12-23 02:58:00,
2013-12-22 22:00:00,59.0,52.8,29.89,SW,221,3.0,7.0,80,0.00,,---,0.07,VWS V14.01,2013-12-23 03:00:00,
2013-12-22 22:03:00,59.0,52.8,29.89,West,272,2.0,9.0,80,0.00,,---,0.07,VWS V14.01,2013-12-23 03:03:00,
2013-12-22 22:08:00,59.0,52.8,29.90,SW,236,4.0,9.0,80,0.00,,---,0.07,VWS V14.01,2013-12-23 03:08:00,
2013-12-22 22:10:00,59.0,52.8,29.90,WSW,250,0.0,9.0,80,0.00,,---,0.07,VWS V14.01,2013-12-23 03:10:00,
2013-12-22 22:13:00,59.0,52.8,29.90,SW,231,1.0,5.0,80,0.00,,---,0.07,VWS V14.01,2013-12-23 03:13:00,
2013-12-22 22:18:00,58.8,52.7,29.91,North,351,0.0,5.0,80,0.00,,---,0.07,VWS V14.01,2013-12-23 03:18:00,
2013-12-22 22:20:00,58.8,52.7,29.91,ENE,74,1.0,5.0,80,0.00,,---,0.07,VWS V14.01,2013-12-23 03:20:00,
2013-12-22 22:23:00,58.6,52.8,29.90,ENE,74,0.0,3.0,81,0.00,,---,0.07,VWS V14.01,2013-12-23 03:23:00,
2013-12-22 22:28:00,58.3,52.8,29.90,South,184,0.0,3.0,82,0.00,,---,0.07,VWS V14.01,2013-12-23 03:28:00,
2013-12-22 22:30:00,58.3,52.8,29.90,West,265,0.0,3.0,82,0.00,,---,0.07,VWS V14.01,2013-12-23 03:30:00,
2013-12-22 22:33:00,58.1,52.6,29.89,ESE,114,1.0,1.0,82,0.00,,---,0.07,VWS V14.01,2013-12-23 03:33:00,
2013-12-22 22:38:00,57.9,52.8,29.89,SW,222,0.0,3.0,83,0.00,,---,0.07,VWS V14.01,2013-12-23 03:38:00,
2013-12-22 22:40:00,57.9,52.8,29.89,SW,236,1.0,3.0,83,0.00,,---,0.07,VWS V14.01,2013-12-23 03:40:00,
2013-12-22 22:43:00,57.8,52.3,29.90,WSW,248,4.0,7.0,82,0.00,,---,0.07,VWS V14.01,2013-12-23 03:43:00,
2013-12-22 22:48:00,57.9,52.5,29.90,SW,225,5.0,7.0,82,0.00,,---,0.07,VWS V14.01,2013-12-23 03:48:00,
2013-12-22 22:50:00,57.9,52.5,29.90,West,268,0.0,7.0,82,0.00,,---,0.07,VWS V14.01,2013-12-23 03:50:00,
2013-12-22 22:53:00,58.0,52.2,29.90,SW,219,5.0,9.0,81,0.00,,---,0.07,VWS V14.01,2013-12-23 03:53:00,
2013-12-22 22:58:00,58.0,52.2,29.90,West,265,2.0,10.0,81,0.00,,---,0.07,VWS V14.01,2013-12-23 03:58:00,
2013-12-22 23:00:00,58.0,51.9,29.90,WSW,248,7.0,10.0,80,0.00,,---,0.07,VWS V14.01,2013-12-23 04:00:00,
2013-12-22 23:03:00,57.9,51.8,29.90,WSW,238,0.0,10.0,80,0.00,,---,0.07,VWS V14.01,2013-12-23 04:03:00,
2013-12-22 23:08:00,57.8,51.7,29.90,SW,222,1.0,10.0,80,0.00,,---,0.07,VWS V14.01,2013-12-23 04:08:00,
2013-12-22 23:10:00,57.7,51.6,29.89,WNW,292,0.0,10.0,80,0.00,,---,0.07,VWS V14.01,2013-12-23 04:10:00,
2013-12-22 23:13:00,57.6,51.5,29.89,WNW,291,0.0,4.0,80,0.00,,---,0.07,VWS V14.01,2013-12-23 04:13:00,
2013-12-22 23:18:00,57.5,51.4,29.89,WSW,246,2.0,6.0,80,0.00,,---,0.07,VWS V14.01,2013-12-23 04:18:00,
2013-12-22 23:20:00,57.6,51.5,29.89,SW,229,1.0,6.0,80,0.00,,---,0.07,VWS V14.01,2013-12-23 04:20:00,
2013-12-22 23:23:00,57.5,51.4,29.90,WSW,244,3.0,3.0,80,0.00,,---,0.07,VWS V14.01,2013-12-23 04:23:00,
2013-12-22 23:28:00,57.4,51.3,29.90,SW,234,0.0,5.0,80,0.00,,---,0.07,VWS V14.01,2013-12-23 04:28:00,
2013-12-22 23:30:00,57.4,51.3,29.90,SW,226,1.0,5.0,80,0.00,,---,0.07,VWS V14.01,2013-12-23 04:30:00,
2013-12-22 23:33:00,57.3,51.2,29.90,SW,226,1.0,3.0,80,0.00,,---,0.07,VWS V14.01,2013-12-23 04:33:00,
2013-12-22 23:38:00,57.3,51.2,29.91,SSW,211,3.0,3.0,80,0.00,,---,0.07,VWS V14.01,2013-12-23 04:38:00,
2013-12-22 23:40:00,57.2,51.1,29.91,SSW,200,1.0,3.0,80,0.00,,---,0.07,VWS V14.01,2013-12-23 04:40:00,
2013-12-22 23:43:00,57.1,51.0,29.90,SW,222,1.0,3.0,80,0.00,,---,0.07,VWS V14.01,2013-12-23 04:43:00,
2013-12-22 23:48:00,57.1,51.0,29.91,WSW,238,1.0,3.0,80,0.00,,---,0.07,VWS V14.01,2013-12-23 04:48:00,
2013-12-22 23:50:00,57.1,51.0,29.91,SW,236,1.0,3.0,80,0.00,,---,0.07,VWS V14.01,2013-12-23 04:50:00,
2013-12-22 23:53:00,57.0,50.9,29.91,SSW,203,0.0,4.0,80,0.00,,---,0.07,VWS V14.01,2013-12-23 04:53:00,